Temp
46 47 49 51 53 53 53 52 50 49 47 46 46 45 44 44 43 44 42 41 40 40 40 40 39 40 39 39 40 40 39 38 35 38 40 40 40 40 41 42 42 42 42
44 46 48 47 48 49 48 47 48 45 44 44 43 42 42 42 41 41 40 40 40 38 38 38 37 38 37 38 38 37 37 38 35 32 36 37 37 39 40 39 40 41 40
42 44 44 45 46 45 45 44 44 43 42 41 42 41 40 39 39 39 39 38 37 37 36 36 35 36 35 35 35 35 36 37 37 34 34 38 38 39 37 38 38 38 40
40 43 42 43 44 43 42 42 41 42 40 39 39 38 38 37 37 36 36 36 35 35 35 35 35 35 34 34 34 34 35 34 35 34 34 35 36 37 36 34 34 37 36
39 40 39 39 40 40 39 38 38 38 37 37 36 36 36 36 35 36 35 35 35 34 34 34 34 34 35 37 35 34 34 33 34 33 33 34 34 33 31 33 32 34 35
38 37 37 38 37 37 37 36 36 35 35 36 35 36 35 35 39 38 36 34 34 33 31 32 33 32 35 37 38 38 37 34 32 32 32 31 32 31 33 32 32 29 27
36 35 36 36 36 36 35 36 34 35 35 34 34 35 34 36 39 38 36 33 33 32 32 32 32 33 33 34 37 38 36 38 38 35 31 32 31 33 32 31 31 30 29
35 34 34 35 34 34 34 34 33 34 34 33 33 33 34 35 38 37 34 33 32 32 32 33 33 32 33 33 34 33 35 35 35 35 34 34 35 35 34 33 31 30 31
34 34 34 34 33 33 33 33 32 32 31 30 31 31 33 34 37 36 34 32 32 32 33 33 33 32 34 37 33 30 32 33 37 39 39 39 39 38 37 34 30 28 27
35 35 34 34 34 33 33 31 29 31 29 30 29 30 30 33 37 37 35 33 31 31 32 32 32 32 35 37 31 29 26 29 31 32 32 34 36 34 35 33 32 27 27
35 34 33 33 33 33 30 28 29 29 28 28 28 28 29 30 33 37 37 32 31 29 30 30 31 34 36 37 38 29 29 33 31 29 31 30 30 31 32 32 32 30 27
33 32 31 32 32 31 30 28 28 28 28 27 27 26 27 27 29 36 37 35 34 28 28 29 29 33 34 36 36 35 36 33 28 29 28 28 28 28 30 30 30 30 30
33 32 31 30 30 30 29 27 27 28 28 26 27 27 26 26 27 34 36 36 36 29 30 30 32 34 35 35 34 34 26 26 25 26 26 27 28 29 28 26 27 26 25
32 30 29 29 28 28 29 29 28 28 27 26 26 26 26 25 25 26 27 29 30 31 30 28 29 32 33 30 25 27 26 25 23 25 25 26 27 24 24 26 24 25 23
31 29 29 29 28 27 27 28 28 29 31 28 28 28 25 24 26 28 26 23 23 26 20 20 22 23 22 22 21 21 22 22 20 21 21 21 22 22 22 24 23 23 21
29 28 29 28 27 26 25 22 27 29 30 31 30 28 23 27 30 31 32 33 33 31 17 16 17 17 17 17 16 16 18 16 17 17 17 18 18 18 19 20 21 21 21
30 28 27 27 26 25 24 25 23 23 29 31 31 30 29 27 31 32 33 32 31 24 14 11 13 14 13 13 13 12 12 13 12 13 14 14 15 15 15 16 17 19 19
32 30 29 29 28 26 25 24 25 21 20 19 29 30 31 30 30 32 31 29 16 10 8 9 9 8 8 9 9 9 9 9 9 9 10 10 10 12 12 13 14 15 16
26 26 27 26 26 25 24 22 21 21 21 16 14 21 25 30 31 30 30 14 13 8 4 3 4 5 5 5 5 5 4 5 5 5 6 6 8 9 9 10 12 11 13
22 23 24 24 21 20 19 18 17 17 16 15 14 18 10 13 15 17 15 7 5 6 3 4 3 1 1 2 2 1 2 1 2 2 3 4 6 7 8 8 9 10 11
16 15 16 16 20 20 19 17 17 15 15 14 16 13 14 15 16 14 10 3 4 3 3 1 1 -1 -1 -1 -2 -1 -2 1 -1 -1 0 2 2 3 5 7 8 8 9
12 11 10 13 12 12 13 14 13 14 14 14 11 8 21 14 8 8 7 4 2 1 1 0 -0 -1 -1 -2 -1 -1 -2 -2 -1 -2 -2 -2 -1 2 2 5 4 6 7
7 7 7 6 11 11 11 11 11 12 12 10 9 9 6 12 8 8 7 5 1 -3 -4 -6 -3 -2 -1 -2 -3 -2 -1 -0 0 -1 -2 -1 -2 -0 0 2 2 3 4
2 4 5 5 7 8 10 10 9 9 10 9 8 8 6 8 7 5 4 3 2 0 -0 -2 -3 -1 0 0 -1 -3 -4 -2 -3 -3 -2 -1 -1 -2 -1 -0 1 2 3
-2 -1 1 1 2 5 5 8 9 9 8 7 7 7 6 6 3 3 3 4 3 0 2 0 -1 -1 -0 -1 0 -2 -3 -0 0 -3 -3 -2 -1 -3 -2 -1 0 1 1
-5 -4 -2 -2 -1 -0 1 2 3 4 5 5 6 5 5 4 5 5 4 4 3 2 3 2 1 0 0 0 -0 -1 -2 1 -1 -3 -2 -1 -2 -2 -2 -2 -2 0 0
MSLP
1017.09 1017.48 1018.04 1018.36 1018.48 1019.19 1019.76 1020.20 1020.64 1021.50 1022.35 1022.97 1024.21 1024.61 1025.86 1026.41 1026.89 1027.07 1027.57 1028.16 1028.77 1029.23 1029.77 1029.94 1030.51 1030.66 1030.69 1030.90 1030.91 1031.07 1031.25 1031.37 1031.40 1031.10 1031.23 1031.13 1030.70 1030.23 1029.88 1029.49 1029.01 1028.72 1028.16
1016.92 1017.37 1017.86 1018.26 1018.64 1019.30 1020.11 1020.55 1020.78 1021.36 1022.61 1023.22 1024.35 1024.73 1025.85 1026.39 1026.94 1027.34 1028.07 1028.82 1029.01 1029.64 1030.03 1030.34 1030.81 1030.93 1030.97 1031.09 1031.19 1031.38 1031.59 1031.74 1031.76 1031.53 1031.28 1030.82 1030.40 1029.88 1029.44 1028.98 1028.68 1028.38 1027.85
1017.28 1017.59 1017.94 1018.40 1018.76 1019.55 1020.26 1020.77 1021.30 1021.94 1022.75 1023.64 1024.42 1024.95 1025.77 1026.16 1026.96 1027.66 1027.88 1028.77 1029.24 1029.76 1030.06 1030.30 1030.63 1030.97 1031.21 1031.44 1031.64 1031.67 1031.73 1031.70 1031.60 1031.48 1031.09 1030.62 1030.09 1029.52 1029.20 1028.97 1028.60 1028.10 1027.52
1017.52 1017.99 1018.13 1018.56 1018.96 1019.83 1020.60 1021.09 1021.63 1022.43 1023.02 1023.85 1024.73 1025.07 1025.80 1026.39 1027.13 1027.88 1028.24 1028.81 1029.80 1029.92 1030.27 1030.68 1030.97 1031.30 1031.39 1031.59 1031.66 1031.62 1031.60 1031.60 1031.51 1031.39 1030.93 1030.43 1029.90 1029.44 1029.29 1028.80 1028.01 1027.76 1027.10
1018.04 1018.27 1018.31 1018.92 1019.65 1020.39 1021.21 1021.76 1022.01 1023.12 1023.81 1024.29 1024.60 1025.52 1026.16 1026.59 1027.21 1027.65 1028.04 1028.90 1029.53 1029.99 1030.45 1030.75 1031.16 1031.33 1031.28 1031.31 1031.38 1031.41 1031.31 1031.47 1031.33 1031.17 1030.87 1030.38 1029.93 1029.62 1029.48 1029.15 1028.44 1027.58 1027.00
1018.27 1018.57 1018.88 1019.41 1020.09 1020.76 1021.49 1022.16 1022.72 1023.51 1024.00 1024.47 1025.07 1025.78 1026.45 1026.97 1027.07 1027.43 1028.09 1028.87 1029.41 1029.88 1030.46 1030.94 1031.17 1031.32 1031.12 1030.98 1030.92 1030.98 1030.88 1031.09 1031.00 1030.91 1030.83 1030.62 1030.23 1030.09 1029.56 1029.14 1028.43 1027.86 1026.72
1018.12 1018.71 1019.19 1019.70 1020.51 1021.28 1021.79 1022.37 1023.17 1023.91 1024.35 1024.87 1025.24 1025.82 1026.46 1027.02 1027.15 1027.50 1028.11 1028.99 1029.37 1029.94 1030.22 1030.64 1030.94 1031.09 1031.07 1030.94 1030.77 1030.67 1030.68 1030.62 1030.65 1030.74 1030.87 1030.58 1030.05 1029.70 1029.21 1028.77 1028.50 1028.35 1027.88
1017.90 1018.53 1019.24 1019.80 1020.47 1021.30 1021.92 1022.66 1023.40 1024.05 1024.55 1025.06 1025.42 1025.97 1026.50 1027.06 1027.36 1027.63 1028.66 1029.06 1029.58 1029.91 1029.98 1030.20 1030.38 1030.77 1030.86 1030.65 1030.57 1030.49 1030.45 1030.36 1030.44 1030.45 1030.28 1029.98 1029.66 1029.30 1028.93 1028.63 1028.29 1027.95 1027.55
1017.55 1018.41 1019.13 1019.77 1020.55 1021.20 1021.91 1022.70 1023.43 1024.10 1024.68 1025.17 1025.56 1026.09 1026.72 1027.09 1027.37 1028.00 1028.80 1029.19 1029.57 1029.61 1029.65 1029.76 1029.98 1030.31 1030.36 1029.97 1030.04 1030.14 1030.09 1030.02 1029.81 1029.57 1029.42 1029.24 1029.01 1028.65 1028.33 1028.11 1027.92 1027.66 1026.92
1016.74 1017.62 1018.61 1019.32 1020.05 1020.96 1021.81 1022.63 1023.25 1023.82 1024.46 1025.35 1025.89 1026.32 1026.63 1027.00 1027.33 1027.86 1028.38 1028.86 1029.10 1029.21 1029.40 1029.57 1029.80 1029.87 1029.80 1029.51 1029.68 1029.81 1030.00 1029.83 1029.63 1029.35 1029.12 1028.70 1028.41 1028.35 1028.13 1028.11 1027.86 1027.53 1027.25
1016.44 1017.39 1018.35 1019.20 1019.91 1020.71 1021.65 1022.42 1023.23 1023.86 1024.66 1025.44 1026.23 1026.67 1026.81 1027.06 1027.25 1027.52 1028.05 1028.50 1028.65 1028.93 1029.07 1029.29 1029.46 1029.39 1029.21 1029.04 1029.00 1029.51 1029.48 1029.12 1029.16 1029.02 1028.61 1028.41 1028.24 1027.99 1027.81 1027.58 1027.30 1027.25 1026.96
1016.37 1017.34 1018.36 1019.23 1020.13 1020.90 1021.67 1022.63 1023.31 1023.78 1024.64 1025.38 1026.10 1026.72 1027.10 1027.29 1027.64 1027.46 1027.67 1027.99 1028.14 1028.50 1028.70 1028.82 1029.08 1028.96 1028.75 1028.56 1028.59 1028.76 1028.57 1028.80 1029.10 1028.65 1028.17 1027.86 1027.64 1027.44 1027.34 1027.19 1027.03 1026.90 1026.75
1016.47 1017.38 1018.31 1019.33 1020.14 1020.81 1021.47 1022.42 1023.28 1023.75 1024.17 1025.05 1025.62 1026.29 1026.62 1027.22 1027.64 1027.35 1027.36 1027.47 1027.61 1028.13 1028.23 1028.25 1028.44 1028.37 1028.23 1028.34 1028.53 1028.50 1028.95 1029.01 1028.87 1028.39 1027.94 1027.61 1027.35 1027.15 1027.11 1026.92 1026.57 1026.26 1026.10
1016.26 1017.24 1018.25 1019.06 1019.90 1020.69 1021.31 1022.10 1022.58 1023.03 1023.76 1024.41 1025.12 1025.44 1026.11 1026.73 1027.09 1027.37 1027.40 1027.43 1027.63 1027.66 1027.84 1028.08 1028.25 1028.15 1028.15 1028.38 1028.91 1028.93 1028.92 1028.83 1028.89 1028.39 1027.87 1027.76 1027.48 1027.29 1027.12 1026.72 1026.40 1025.82 1025.45
1016.27 1017.28 1018.16 1019.01 1019.82 1020.42 1021.16 1021.80 1022.04 1022.39 1022.49 1023.03 1023.62 1024.23 1024.98 1025.65 1025.72 1026.19 1026.66 1027.08 1027.44 1027.62 1028.34 1028.64 1028.51 1028.54 1028.77 1028.97 1029.06 1029.06 1029.07 1028.95 1028.98 1028.56 1028.00 1027.76 1027.52 1027.14 1026.83 1026.48 1026.31 1025.80 1025.30
1016.20 1017.08 1017.93 1018.83 1019.70 1020.48 1021.22 1021.92 1022.12 1022.26 1022.64 1022.76 1023.13 1023.45 1024.15 1024.46 1024.89 1025.31 1025.73 1026.07 1026.48 1026.89 1028.32 1028.75 1028.82 1028.90 1029.00 1029.08 1029.15 1029.21 1029.19 1029.07 1028.92 1028.64 1028.45 1028.20 1027.94 1027.43 1026.83 1026.44 1026.11 1025.72 1025.00
1015.74 1016.69 1017.61 1018.43 1019.26 1019.97 1020.78 1021.38 1021.69 1022.65 1022.73 1022.80 1022.88 1023.22 1023.63 1024.00 1024.39 1024.81 1025.21 1025.62 1026.14 1026.97 1027.89 1028.49 1028.79 1028.83 1028.85 1029.04 1029.08 1029.16 1029.12 1029.16 1029.08 1028.75 1028.57 1028.22 1027.93 1027.55 1027.02 1026.46 1025.89 1025.73 1024.89
1015.89 1016.43 1016.84 1017.42 1018.36 1019.37 1020.09 1020.72 1021.06 1021.71 1022.24 1022.48 1022.56 1022.85 1023.00 1023.43 1024.09 1024.43 1024.91 1025.36 1026.72 1027.35 1027.77 1028.09 1028.36 1028.69 1028.76 1028.79 1028.87 1029.00 1028.94 1028.99 1028.91 1028.71 1028.61 1028.51 1028.22 1027.76 1027.02 1026.43 1025.90 1025.75 1025.13
1016.61 1017.01 1017.43 1017.99 1018.49 1019.07 1019.76 1020.38 1020.91 1021.43 1021.80 1022.25 1023.07 1022.90 1022.80 1023.12 1023.53 1024.00 1024.34 1025.36 1026.40 1026.97 1027.58 1027.82 1027.95 1028.19 1028.34 1028.40 1028.56 1028.74 1028.82 1028.83 1028.86 1028.68 1028.59 1028.58 1028.24 1027.71 1027.15 1026.70 1026.14 1025.83 1025.27
1016.99 1017.24 1017.61 1018.13 1018.72 1019.19 1019.65 1020.18 1020.73 1021.11 1021.63 1022.03 1022.43 1022.50 1023.27 1023.64 1023.46 1023.72 1024.30 1025.28 1026.09 1026.47 1027.07 1027.18 1027.20 1027.54 1027.79 1027.89 1028.09 1028.30 1028.53 1028.53 1028.52 1028.59 1028.44 1028.38 1028.07 1027.67 1027.09 1026.59 1026.27 1025.88 1025.36
1017.60 1018.05 1018.26 1018.56 1018.79 1019.04 1019.43 1019.82 1020.27 1020.85 1021.27 1021.64 1021.78 1022.24 1022.60 1022.73 1023.02 1023.31 1023.95 1024.90 1025.33 1025.76 1026.14 1026.50 1026.69 1026.96 1027.24 1027.49 1027.80 1027.80 1028.18 1028.00 1027.85 1028.04 1028.02 1027.95 1027.59 1027.28 1027.09 1026.58 1026.28 1025.88 1025.40
1017.92 1018.25 1018.54 1018.69 1018.89 1019.22 1019.44 1019.75 1020.16 1020.54 1020.86 1021.20 1021.64 1022.21 1022.06 1022.67 1023.21 1023.64 1023.88 1024.16 1024.71 1025.07 1025.46 1025.97 1026.15 1026.28 1026.60 1026.70 1027.03 1027.34 1027.36 1027.38 1027.24 1027.51 1027.73 1027.63 1027.31 1026.86 1026.73 1026.55 1026.29 1025.89 1025.40
1018.65 1019.00 1019.13 1019.26 1019.40 1019.59 1019.85 1020.06 1020.31 1020.48 1020.67 1020.93 1021.22 1021.64 1022.15 1022.06 1022.62 1023.08 1023.32 1023.68 1024.18 1024.64 1025.00 1025.65 1025.68 1025.68 1025.74 1026.04 1026.34 1026.59 1026.57 1026.32 1026.37 1026.71 1026.86 1026.78 1026.63 1026.39 1026.26 1026.06 1025.93 1025.63 1025.20
1019.01 1019.37 1019.47 1019.64 1019.84 1020.00 1020.04 1020.08 1020.23 1020.36 1020.46 1020.75 1020.98 1021.18 1021.51 1021.61 1022.12 1022.35 1022.48 1023.01 1023.39 1023.62 1024.05 1024.54 1024.82 1024.76 1024.60 1024.86 1025.00 1025.26 1025.57 1025.46 1025.72 1025.93 1026.06 1026.03 1025.71 1025.63 1025.84 1025.64 1025.42 1025.18 1024.88
1019.33 1019.69 1019.69 1019.71 1019.75 1019.84 1019.84 1019.77 1019.78 1019.84 1019.93 1020.06 1020.21 1020.55 1020.74 1020.96 1021.37 1021.47 1021.65 1021.97 1022.19 1022.53 1023.01 1023.35 1023.86 1023.92 1024.06 1023.97 1023.92 1023.91 1024.05 1024.22 1024.67 1024.69 1024.83 1025.07 1024.70 1024.61 1024.82 1024.84 1024.78 1024.63 1024.43
1019.61 1019.73 1019.85 1019.82 1019.77 1019.74 1019.66 1019.61 1019.59 1019.67 1019.64 1019.59 1019.68 1019.82 1019.94 1020.22 1020.39 1020.54 1020.75 1021.01 1021.12 1021.49 1021.97 1022.18 1022.37 1022.67 1022.77 1022.95 1023.16 1023.21 1023.41 1023.22 1023.67 1023.80 1023.78 1023.90 1023.78 1023.82 1023.87 1023.93 1024.03 1023.97 1023.70
Wind_Speed
6 6 6 5 6 7 8 9 11 10 10 11 8 11 9 8 7 9 9 9 9 8 6 8 7 6 5 4 5 5 5 3 1 3 5 9 10 10 10 10 9 11 9
5 6 7 7 8 8 8 9 11 12 9 11 10 11 10 9 8 10 10 7 9 8 7 8 6 4 6 5 5 6 5 5 3 6 8 8 10 9 9 11 9 9 10
5 7 7 8 9 9 10 10 11 12 11 10 11 12 11 10 10 8 9 8 9 8 7 7 7 6 6 5 5 4 3 3 3 4 6 6 7 7 10 8 9 9 8
6 7 8 7 9 9 9 10 11 10 12 10 9 11 10 10 9 8 9 9 8 7 8 7 7 6 6 5 4 3 3 3 4 5 6 7 7 8 7 10 10 8 10
6 7 8 8 8 9 9 9 11 10 9 10 11 9 9 8 7 9 9 9 9 9 7 7 6 5 7 5 3 2 3 3 4 5 7 6 8 9 11 10 10 11 11
6 6 7 9 9 9 10 10 11 10 10 10 10 10 8 5 14 14 11 8 7 8 8 7 6 5 5 5 5 4 4 4 3 4 5 7 9 9 8 9 9 10 11
8 8 8 9 10 9 10 11 10 10 9 9 9 9 9 7 15 15 13 7 7 7 8 7 5 3 3 2 1 1 1 6 6 5 6 7 9 9 8 10 9 9 9
9 10 9 10 11 10 10 10 9 8 9 9 8 8 8 6 14 14 12 7 7 7 7 6 6 4 3 3 2 1 2 2 3 3 5 7 7 7 6 7 9 10 8
11 11 10 11 11 11 11 11 7 9 7 6 6 8 8 7 14 14 11 6 6 6 5 5 5 5 6 3 1 3 4 4 6 9 10 11 13 15 11 6 6 8 10
14 13 12 12 13 12 11 10 4 7 7 6 6 6 6 8 14 14 10 5 6 4 4 4 8 6 7 4 2 2 3 5 7 7 6 8 8 7 12 5 6 7 8
12 12 12 11 12 11 10 5 8 8 8 7 7 5 6 5 7 13 13 5 5 4 4 3 3 7 8 8 7 3 4 6 5 6 6 4 5 5 5 5 5 7 8
12 12 11 11 8 8 11 8 8 9 9 8 7 5 3 4 6 12 13 11 10 5 4 3 3 8 8 9 8 6 10 8 4 6 6 6 6 5 6 5 7 7 7
13 12 12 10 9 10 11 10 8 8 7 7 7 6 5 5 4 12 13 12 10 4 3 5 8 9 9 6 9 9 4 3 4 6 6 6 6 6 6 5 6 6 7
13 12 11 12 10 9 6 7 8 8 7 7 7 6 6 6 5 5 4 3 6 5 4 3 5 8 6 1 1 3 2 3 3 6 6 7 6 4 6 6 6 6 4
11 10 10 8 9 9 6 7 6 5 8 9 8 8 9 8 9 11 8 5 4 5 2 0 1 1 1 1 1 1 3 3 4 4 5 6 6 6 6 6 6 6 5
11 9 9 8 7 7 7 4 4 6 11 9 10 9 3 4 14 17 16 14 12 9 2 2 3 3 4 3 3 2 2 2 3 5 5 6 7 7 7 7 6 7 7
12 11 8 9 8 9 8 8 8 4 11 13 12 13 13 10 13 15 15 13 10 7 3 3 4 5 4 4 3 2 2 3 3 4 5 5 6 7 7 6 6 7 6
7 10 10 10 10 9 8 8 6 9 8 5 12 12 15 14 15 16 14 9 4 2 3 5 5 5 4 4 3 2 2 2 2 3 4 5 5 5 6 6 5 6 6
5 5 6 6 6 7 7 6 6 6 6 4 2 6 8 15 16 15 17 5 6 4 5 5 4 4 4 3 3 3 3 2 2 2 3 4 4 4 5 5 6 7 6
4 6 6 6 5 6 6 7 6 7 6 6 6 8 4 3 5 7 5 4 5 4 4 5 5 4 4 4 3 3 3 3 3 3 3 4 4 4 5 5 5 6 6
3 3 3 3 5 6 6 7 6 6 6 7 8 6 13 8 9 9 8 7 7 6 6 5 4 4 4 3 3 3 4 5 3 4 4 4 3 4 4 5 6 5 5
3 3 3 5 3 4 5 4 5 6 6 7 4 4 16 8 5 6 6 6 6 5 4 4 4 4 5 5 5 5 5 5 4 5 5 5 4 4 4 5 5 6 6
2 2 2 1 2 3 4 4 5 6 5 5 4 5 5 6 6 7 6 5 5 5 4 4 4 4 4 5 5 5 6 6 6 5 5 5 5 5 4 5 5 5 5
2 3 4 3 3 4 4 5 5 5 6 5 6 6 6 7 7 7 6 5 5 5 5 5 5 7 5 6 6 5 6 6 4 6 7 6 6 5 5 6 6 6 6
2 2 2 3 3 4 3 5 5 6 6 7 7 7 7 7 6 7 6 6 6 5 6 5 5 8 10 10 9 8 8 11 9 8 6 7 8 7 6 6 6 6 7
2 2 3 2 3 4 4 4 5 5 6 6 6 6 7 7 7 7 6 6 6 6 7 5 7 10 10 9 10 10 10 10 10 11 7 7 7 6 5 7 8 7 7
Wind_Direction
163 159 165 168 141 144 149 144 138 128 128 120 131 120 119 120 119 110 106 112 110 108 98 97 91 93 87 76 70 65 64 47 348 308 322 333 337 342 341 339 330 331 324
151 151 159 143 139 138 140 137 136 130 127 124 128 120 127 125 117 116 115 120 115 111 111 104 101 98 83 71 66 60 50 46 9 338 318 337 336 335 333 335 336 323 317
144 145 141 145 143 142 141 135 128 129 127 126 131 131 131 123 119 119 122 118 110 117 120 116 113 105 89 82 75 72 52 42 13 334 318 317 321 337 338 336 329 325 323
139 152 144 143 140 138 134 129 128 129 131 130 129 124 124 124 125 125 120 113 122 115 107 104 104 106 109 112 96 76 49 11 5 341 329 330 334 341 334 332 336 339 337
149 149 132 118 118 122 121 121 117 122 124 125 121 117 124 127 134 135 126 132 130 117 113 113 121 120 122 110 108 64 34 12 353 345 338 334 333 338 339 338 329 334 331
151 136 124 124 125 127 127 126 124 125 128 127 125 131 130 126 140 137 133 129 130 130 135 137 142 142 120 100 71 51 29 356 340 331 327 324 323 322 322 328 327 342 340
147 139 138 135 132 134 132 129 130 135 135 132 131 131 131 134 142 136 131 132 134 144 145 148 147 154 153 166 131 23 342 350 339 326 307 308 301 308 309 323 330 323 316
150 148 148 146 141 141 137 137 134 141 142 143 135 133 131 141 143 135 142 138 142 153 154 154 135 143 190 227 207 196 271 279 282 268 255 276 280 284 290 306 306 305 297
156 158 156 152 148 146 147 148 140 141 135 134 140 137 140 140 147 151 156 151 157 158 163 158 160 177 221 247 166 270 285 277 267 276 279 298 304 306 309 306 306 316 314
171 164 160 157 156 157 151 150 135 140 132 138 127 141 135 143 161 167 166 164 159 164 173 183 192 198 230 261 201 251 278 272 278 262 246 257 273 284 301 296 301 302 305
160 156 157 158 155 152 142 133 143 137 131 131 134 139 144 156 169 181 183 177 171 168 177 191 217 249 258 265 276 187 242 284 300 299 273 272 281 289 286 282 280 285 287
153 152 153 151 149 146 142 135 140 140 143 145 144 146 175 155 197 196 195 191 183 173 194 202 230 251 253 259 266 263 283 320 306 298 301 300 295 293 289 289 290 275 263
152 155 153 145 147 153 150 151 149 154 152 157 160 173 168 181 200 207 198 201 205 190 202 225 241 247 258 260 271 282 318 310 310 306 301 300 303 305 299 292 282 265 264
155 154 152 155 155 155 147 161 161 162 159 161 178 175 178 183 195 201 204 212 238 237 252 269 269 258 263 169 28 315 323 318 311 303 305 307 310 300 300 304 299 308 293
151 151 157 158 165 156 152 171 173 184 183 179 190 180 175 195 206 193 189 193 204 223 138 342 247 199 243 271 270 312 308 329 330 332 322 312 307 309 305 311 301 299 276
152 159 165 159 158 159 159 138 193 194 203 208 199 184 177 160 185 194 201 212 217 191 92 196 212 214 219 213 222 241 270 298 326 327 315 311 309 308 309 310 304 293 286
165 162 158 158 168 172 177 187 174 208 210 211 202 196 191 185 190 198 207 214 199 156 184 205 218 211 212 217 216 215 235 295 319 308 302 303 304 300 303 305 305 296 295
172 178 177 177 178 180 184 190 174 176 187 194 221 210 205 197 208 210 209 180 174 184 191 200 211 208 211 215 218 222 254 276 277 297 305 303 298 293 300 300 302 295 299
139 162 168 170 174 176 172 171 179 178 191 161 178 238 200 208 211 213 216 174 206 213 206 211 208 206 212 208 219 231 237 264 279 298 283 287 291 290 295 295 300 295 301
151 154 161 165 159 165 171 182 188 199 195 193 199 204 155 131 195 203 208 179 201 216 206 215 203 209 216 216 220 224 253 246 249 253 257 271 283 286 287 292 293 298 297
139 133 134 136 183 190 190 199 199 192 204 208 219 192 188 195 208 205 197 201 206 208 208 213 211 215 214 221 225 222 233 253 239 249 254 256 258 275 280 286 289 285 283
148 157 168 190 168 182 196 184 187 200 209 215 203 198 213 205 215 220 219 211 211 206 196 199 210 208 207 204 208 221 228 240 239 237 249 250 256 263 273 284 286 286 286
128 144 164 164 189 178 193 202 209 215 218 212 185 192 204 225 205 214 219 213 201 201 198 202 214 225 209 213 213 214 222 233 228 209 229 243 247 258 256 266 269 268 273
160 174 178 181 177 199 214 214 213 215 220 217 212 216 213 219 218 218 210 211 215 212 208 202 211 221 230 227 221 216 221 238 226 223 218 232 239 232 249 251 256 258 264
183 197 192 189 189 211 218 223 219 217 220 220 217 212 212 210 210 215 208 210 206 196 219 207 211 225 232 238 239 228 225 236 233 212 209 221 231 222 233 239 247 252 247
225 212 221 210 221 214 215 216 224 224 229 229 228 221 216 214 217 214 210 210 206 212 216 215 219 224 227 236 244 248 246 239 234 229 219 222 225 230 222 233 234 239 238